This demonstration page uses our WeatherBlox Daily Observations layout. Learn more.

Left ArrowRight Arrow

Hourly Observations for July 1, 2021

Temp ( °F °C ) Dew Point ( °F °C ) Humidity (%) Winds ( mph kmh ) Pressure ( in mb ) Visibility ( mi km ) Precip ( " mm )
12:15 am 00:15 Mostly Cloudy 71 21.8 67 19.2 85 85 E 6 9 30.02 1017 10 16 N/A
12:35 am 00:35 Cloudy 71 21.5 67 19.2 87 87 E 6 9 30.02 1017 10 16 N/A
12:55 am 00:55 Cloudy 71 21.6 67 19.2 86 86 ESE 6 9 30.02 1017 10 16 N/A
1:15 am 01:15 Cloudy 71 21.5 67 19.3 87 87 E 6 9 30.02 1017 10 16 N/A
1:35 am 01:35 Cloudy 71 21.5 67 19.5 88 88 E 3 6 30.02 1017 10 16 N/A
1:55 am 01:55 Cloudy 70 21.2 67 19.5 90 90 E 5 7 30.03 1017 10 16 N/A
2:35 am 02:35 Mostly Cloudy 69 20.8 67 19.5 92 92 E 5 7 30.03 1017 10 16 N/A
2:55 am 02:55 Mostly Cloudy 70 21 67 19.5 91 91 N N/A 30.02 1017 10 16 N/A
3:15 am 03:15 Mostly Cloudy 69 20.7 67 19.3 92 92 SE 3 6 30.01 1016 7 11 N/A
3:35 am 03:35 Cloudy 69 20.7 67 19.2 91 91 SSE 5 7 30.01 1016 7 11 N/A
3:55 am 03:55 Mostly Cloudy 69 20.5 67 19.2 92 92 N N/A 30.02 1017 7 11 N/A
4:15 am 04:15 Partly Cloudy with Mist and Fog 68 19.9 66 18.8 93 93 N N/A 30.03 1017 5 8 N/A
4:35 am 04:35 Clear with Mist and Fog 66 19 65 18.3 96 96 E 5 7 30.03 1017 5 8 N/A
4:55 am 04:55 Clear 67 19.3 65 18.4 95 95 E 6 9 30.03 1017 7 11 N/A
5:15 am 05:15 Clear 66 19 64 18 94 94 E 3 6 30.04 1017 7 11 N/A
5:35 am 05:35 Clear with Mist and Fog 66 18.8 64 17.7 93 93 N N/A 30.05 1017 5 8 N/A
5:55 am 05:55 Clear with Mist and Fog 65 18.5 64 17.5 94 94 N N/A 30.05 1018 5 8 N/A
6:15 am 06:15 Sunny with Mist and Fog 64 18 63 17.4 96 96 N N/A 30.06 1018 3 5 N/A
6:35 am 06:35 Mostly Cloudy with Mist and Fog 64 17.8 63 17.3 97 97 N 3 6 30.07 1018 2 2 N/A
6:55 am 06:55 Partly Cloudy with Mist and Fog 64 18 64 17.5 97 97 N N/A 30.06 1018 2 3 N/A
7:15 am 07:15 Partly Cloudy with Mist and Fog 66 18.8 65 18.3 97 97 N N/A 30.06 1018 3 5 N/A
7:35 am 07:35 Partly Cloudy 68 19.9 66 18.7 93 93 N N/A 30.05 1018 7 11 N/A
7:55 am 07:55 Sunny with Mist and Fog 68 20.2 66 18.7 91 91 ENE 5 7 30.05 1017 5 8 N/A
8:15 am 08:15 Sunny 69 20.5 65 18.6 89 89 ENE 5 7 30.04 1017 7 11 N/A
8:35 am 08:35 Sunny 70 21.1 66 18.7 86 86 ENE 6 9 30.05 1018 10 16 N/A
8:55 am 08:55 Sunny 71 21.6 65 18.5 83 83 E 5 7 30.04 1017 10 16 N/A
9:15 am 09:15 Sunny 73 22.8 64 17.7 73 73 E 6 9 30.05 1018 10 16 N/A
9:35 am 09:35 Sunny 74 23.2 64 17.6 71 71 E 6 9 30.05 1018 10 16 N/A
9:55 am 09:55 Sunny 74 23.6 62 16.6 65 65 E 6 9 30.06 1018 10 16 N/A
10:15 am 10:15 Sunny 75 23.7 63 17 66 66 ESE 7 11 30.05 1017 10 16 N/A
10:35 am 10:35 Sunny 76 24.3 62 16.4 61 61 ESE 7 11 30.04 1017 10 16 N/A
10:55 am 10:55 Sunny 75 24 62 16.7 64 64 E 7 11 30.04 1017 10 16 N/A
11:15 am 11:15 Sunny 76 24.6 62 16.6 61 61 E 9 15 30.04 1017 10 16 N/A
11:35 am 11:35 Sunny 77 24.9 62 16.8 61 61 ESE 9 15 30.04 1017 10 16 N/A
11:55 am 11:55 Partly Cloudy 76 24.6 62 16.5 61 61 E 10 17 30.04 1017 10 16 N/A
12:15 pm 12:15 Partly Cloudy 77 24.8 61 16.3 59 59 E 8 13 30.04 1017 10 16 N/A
12:35 pm 12:35 Mostly Cloudy 77 25.1 61 16.1 57 57 E 8 13 30.04 1017 10 16 N/A
12:55 pm 12:55 Partly Cloudy 78 25.5 61 16.1 56 56 ESE 8 13 30.03 1017 10 16 N/A
1:15 pm 13:15 Partly Cloudy 78 25.8 62 16.4 56 56 ESE 5 7 30.03 1017 10 16 N/A
1:35 pm 13:35 Mostly Cloudy 79 26.2 61 15.9 53 53 ESE 8 13 30.02 1016 10 16 N/A
1:55 pm 13:55 Mostly Cloudy 78 25.4 61 16.2 57 57 E 8 13 30.02 1017 10 16 N/A
2:15 pm 14:15 Mostly Cloudy 80 26.5 61 16.2 53 53 E 9 15 30.00 1016 10 16 N/A
2:35 pm 14:35 Partly Cloudy 80 26.6 61 16.1 53 53 ESE 10 17 29.99 1016 10 16 N/A
2:55 pm 14:55 Partly Cloudy 80 26.9 62 16.4 53 53 E 8 13 29.99 1016 10 16 N/A
3:15 pm 15:15 Partly Cloudy 80 26.8 61 16.3 53 53 E 10 17 29.98 1015 10 16 N/A
3:35 pm 15:35 Partly Cloudy 80 26.9 61 16 51 51 E 8 13 29.98 1015 10 16 N/A
3:55 pm 15:55 Partly Cloudy 81 27 61 16.2 52 52 E 9 15 29.98 1015 10 16 N/A
4:15 pm 16:15 Partly Cloudy 80 26.9 60 15.4 49 49 E 9 15 29.98 1015 10 16 N/A
4:35 pm 16:35 Mostly Cloudy 80 26.6 61 15.9 52 52 ESE 10 17 29.97 1015 10 16 N/A
4:55 pm 16:55 Partly Cloudy 80 26.7 59 14.9 48 48 ENE 7 11 29.96 1015 10 16 N/A
5:15 pm 17:15 Mostly Cloudy 80 26.5 60 15.3 50 50 ESE 5 7 29.96 1015 10 16 N/A
5:35 pm 17:35 Partly Cloudy 80 26.6 60 15.7 51 51 E 9 15 29.96 1015 10 16 N/A
5:55 pm 17:55 Mostly Cloudy 79 26.2 60 15.5 52 52 E 7 11 29.97 1015 10 16 N/A
6:15 pm 18:15 Partly Cloudy 79 26.3 60 15.4 51 51 E 8 13 29.97 1015 10 16 N/A
6:35 pm 18:35 Sunny 80 26.5 60 15.8 52 52 E 7 11 29.96 1015 10 16 N/A
6:55 pm 18:55 Sunny 79 26.2 60 15.5 52 52 E 6 9 29.97 1015 10 16 N/A
7:15 pm 19:15 Sunny 79 26 61 15.9 54 54 ESE 7 11 29.97 1015 10 16 N/A
7:35 pm 19:35 Sunny 79 26 62 16.4 56 56 ESE 5 7 29.97 1015 10 16 N/A
7:55 pm 19:55 Sunny 78 25.7 63 17.1 59 59 SE 5 7 29.98 1015 10 16 N/A
8:15 pm 20:15 Sunny 77 25 63 17.3 62 62 SE 5 7 30.00 1016 10 16 N/A
8:35 pm 20:35 Partly Cloudy 75 23.8 65 18.1 71 71 ESE 3 6 30.01 1016 10 16 N/A
8:55 pm 20:55 Mostly Cloudy 74 23.1 65 18.6 76 76 ESE 5 7 30.02 1017 10 16 N/A
9:15 pm 21:15 Partly Cloudy 72 22.2 64 17.5 75 75 ESE 6 9 30.02 1017 10 16 N/A
9:35 pm 21:35 Partly Cloudy 70 21.1 64 17.5 80 80 ESE 7 11 30.03 1017 10 16 N/A
9:55 pm 21:55 Clear 69 20.5 64 17.5 83 83 E 7 11 30.04 1017 10 16 N/A
10:15 pm 22:15 Clear 68 20 63 17.3 85 85 E 6 9 30.05 1017 10 16 N/A
10:35 pm 22:35 Clear 68 19.8 64 17.5 87 87 ESE 6 9 30.06 1018 10 16 N/A
10:55 pm 22:55 Clear 68 20 63 17.3 85 85 SE 3 6 30.07 1018 10 16 N/A
11:15 pm 23:15 Clear 67 19.6 63 17.1 86 86 ESE 5 7 30.07 1018 10 16 N/A
11:35 pm 23:35 Clear 67 19.6 63 17 85 85 SE 3 6 30.07 1018 10 16 N/A
11:55 pm 23:55 Clear 67 19.3 62 16.7 85 85 SE 3 6 30.07 1018 10 16 N/A

Powered by AerisWeather